Tracking 35274 objects as of 11-Sep-2026
HD Live streaming from Space Station
objects crossing your sky now

STARLINK-32799

Track STARLINK-32799 now!
10-day predictions
STARLINK-32799 is classified as:


NORAD ID: 62847
Int'l Code: 2025-019U
Launch date: January 27, 2025
Source: United States (US)
Launch site: AIR FORCE EASTERN TEST RANGE (AFETR)
Your satellite tracking list
Your tracking list is empty




NASA's NSSDC Master Catalog

Two Line Element Set (TLE):
1 62847U 25019U   26254.06521484  .00011006  00000-0  40881-3 0  9995
2 62847  43.0003 121.9083 0001458 271.0615  89.0069 15.27586218 90605
Source of the keplerian elements: AFSPC